Theta_e
325 325 325 325 324 324 325 326 327 324 325 325 322 318 317 313 310 309 309 309 309 309 308 308 308 309 309 308 306 302 300 298 297 296 299 296 297 300 302 300 298 299 299
326 326 326 327 327 327 327 326 323 324 322 319 317 316 313 310 310 311 310 310 309 308 308 308 308 308 305 302 300 298 297 296 295 295 298 299 299 299 299 299 296 296 296
323 322 323 322 317 315 314 314 314 313 313 314 313 311 310 311 311 311 310 309 308 308 307 306 304 302 299 298 297 296 295 294 294 294 297 298 299 298 297 297 296 296 295
321 320 316 314 314 314 313 312 312 312 312 311 311 311 311 311 311 310 309 308 308 306 303 301 298 297 296 296 296 295 293 293 296 295 296 296 296 297 296 296 295 294 294
319 315 315 315 315 315 315 315 314 313 313 312 312 312 311 310 309 309 307 305 303 300 297 296 296 296 295 296 296 293 292 293 294 295 294 294 294 294 294 294 294 294 294
316 315 316 316 316 315 315 315 315 315 314 313 312 311 309 307 305 304 302 300 298 297 297 297 297 296 296 296 296 293 293 293 293 294 294 295 294 294 294 293 293 294 293
316 316 316 316 316 316 315 315 315 314 313 311 310 309 306 304 303 301 300 299 298 297 298 297 297 297 297 296 294 293 294 294 294 294 293 293 293 292 292 292 293 292 293
316 316 316 316 316 316 315 315 314 312 311 310 308 306 304 303 301 300 299 299 299 299 298 298 298 298 297 295 295 293 293 293 293 292 291 290 290 290 290 291 291 291 290
317 317 316 316 316 316 315 313 312 310 308 306 305 304 302 301 300 299 299 298 298 298 298 298 298 298 296 295 294 293 293 292 292 291 290 290 289 289 289 289 289 289 289
316 316 316 316 316 314 312 310 308 307 305 305 304 302 301 300 300 299 299 298 297 297 297 297 297 297 296 295 294 293 292 292 291 290 289 288 288 288 288 288 287 287 287
315 313 313 312 310 309 308 308 306 305 304 303 302 301 301 301 300 297 296 298 297 296 295 294 296 297 295 295 293 293 292 290 289 288 288 287 287 287 287 286 285 285 285
312 310 309 308 308 308 306 305 304 302 301 300 300 300 298 295 294 293 293 293 292 292 292 293 296 295 295 294 293 292 290 289 288 287 287 287 287 286 285 284 284 284 283
309 308 308 308 307 304 302 302 302 300 300 299 297 296 295 292 292 293 293 292 291 291 291 292 295 295 294 293 293 290 289 288 288 287 287 286 285 284 284 284 283 283 283
309 308 307 305 303 302 301 301 300 298 296 296 295 293 292 293 293 292 292 291 291 290 290 291 293 293 292 292 291 289 289 288 287 287 286 285 284 284 283 283 283 283 282
306 305 303 302 301 300 300 297 296 296 296 294 292 292 292 292 292 292 291 291 291 290 290 292 292 291 291 291 289 289 288 287 287 285 284 283 282 282 281 281 281 281 281
305 302 301 301 300 298 296 296 295 295 293 291 291 291 291 291 291 291 291 291 291 290 291 291 290 289 289 289 288 287 287 287 285 284 283 282 281 280 280 280 279 279 279
303 301 301 300 297 296 296 295 294 293 291 290 290 290 290 291 291 292 292 291 291 290 289 289 289 288 288 288 287 287 286 284 283 283 282 281 280 280 279 279 279 280 280
303 301 301 297 296 296 295 294 292 291 290 290 289 290 290 290 291 292 291 291 291 290 290 289 289 288 288 288 287 286 284 283 283 282 281 280 279 279 278 279 280 280 280
302 301 298 296 296 295 294 292 291 290 290 289 289 289 290 290 291 291 290 291 290 290 290 289 288 288 287 286 286 284 283 283 282 281 280 279 278 278 278 279 279 279 279
301 298 296 296 295 294 292 291 290 290 289 289 289 289 289 289 290 289 290 290 288 288 289 288 288 287 286 285 284 283 283 282 281 280 279 278 278 277 278 278 278 278 279
299 296 295 295 294 293 291 290 289 289 289 289 289 289 289 289 289 289 289 288 288 289 288 288 287 286 285 284 283 282 282 281 280 279 279 278 278 277 277 277 277 278 278
296 295 295 294 293 291 290 289 289 289 289 289 289 289 289 288 288 288 287 287 288 288 287 287 286 285 284 283 283 282 281 281 279 278 278 277 276 277 277 277 277 277 278
296 295 294 293 291 290 289 289 289 289 289 289 289 289 288 287 288 287 287 287 287 287 286 285 284 284 283 283 282 282 281 280 279 278 278 277 276 277 277 276 276 277 277
295 294 293 291 290 289 289 289 289 289 289 289 289 288 287 287 287 286 286 286 286 285 285 284 283 283 283 282 282 281 281 280 279 278 278 277 275 276 276 275 275 275 275
294 293 291 290 289 289 289 289 289 289 289 288 288 287 286 287 286 285 285 285 284 283 283 283 283 283 282 282 282 281 280 280 279 278 278 277 276 276 276 275 275 274 274
292 290 290 289 289 289 289 289 289 288 287 286 287 287 286 286 286 285 284 284 283 282 282 282 282 282 282 282 281 281 280 280 279 279 278 278 276 275 275 275 275 274 274
Wind_Speed
5 5 7 7 7 8 9 10 9 15 7 12 7 11 7 8 6 5 7 9 12 14 16 17 19 21 23 25 26 27 27 26 28 27 19 22 10 8 11 18 22 21 21
11 8 7 7 7 5 6 4 3 6 9 9 10 10 8 4 3 9 13 16 19 18 17 18 19 22 23 24 25 25 26 26 26 23 16 10 12 11 10 13 22 24 24
19 18 14 11 19 22 20 17 15 14 12 10 7 6 4 3 8 12 15 16 18 16 16 19 20 22 23 23 24 25 26 24 23 20 12 9 8 15 11 12 21 20 23
15 13 20 21 20 20 19 17 15 12 10 7 3 1 2 5 10 10 12 14 14 16 18 19 19 19 21 23 24 24 23 21 16 15 12 14 14 10 15 14 19 21 19
14 19 19 18 17 16 14 13 11 8 5 3 3 5 6 6 7 9 12 15 17 17 17 16 18 19 20 20 21 21 21 19 16 12 13 14 11 11 11 19 18 19 19
18 18 17 14 14 13 13 12 10 8 6 4 4 5 5 5 8 12 15 16 16 14 15 17 18 18 20 21 21 20 18 17 15 14 12 12 13 15 16 20 23 22 22
19 19 18 15 13 13 12 9 8 5 3 3 5 6 6 10 14 15 15 16 15 17 19 20 19 20 20 20 20 20 19 18 16 15 15 16 18 20 21 23 22 23 24
20 17 15 13 12 10 10 9 6 5 4 4 5 6 10 12 14 17 16 16 19 19 21 21 22 21 20 21 22 22 20 16 16 15 17 18 19 21 25 25 23 24 28
17 14 13 14 12 11 10 7 6 4 3 4 7 10 10 13 15 16 16 18 21 21 21 22 23 22 21 23 24 23 18 17 17 17 19 20 23 24 23 21 16 18 26
13 14 13 13 13 11 9 7 3 3 5 8 10 8 12 15 18 20 20 21 22 23 23 23 23 23 22 22 23 22 17 18 16 18 20 20 21 20 21 22 24 21 26
11 11 12 13 12 9 7 3 3 5 8 10 10 12 17 20 20 21 22 22 23 22 22 22 24 24 24 23 24 19 16 14 16 18 19 19 21 25 27 28 24 22 22
14 14 14 12 9 6 3 2 6 7 11 9 12 15 16 20 23 21 19 21 25 24 24 23 23 25 24 22 25 15 11 13 16 18 20 23 27 28 24 21 21 20 21
16 14 11 8 5 3 2 4 9 7 8 10 14 19 23 22 19 17 21 24 28 26 24 23 24 24 24 24 26 11 10 13 16 20 24 29 28 23 21 21 22 22 23
15 11 7 5 4 3 2 7 5 7 12 16 20 20 17 15 16 21 25 27 26 25 24 22 22 23 23 26 9 8 15 15 19 24 28 29 25 23 23 23 23 23 23
12 8 7 6 4 2 3 3 7 12 16 18 18 16 14 18 20 23 26 26 24 25 25 22 19 17 12 8 10 14 13 18 24 28 28 27 27 29 28 23 22 22 24
10 9 9 6 4 4 3 7 11 15 18 17 16 16 19 21 23 25 26 24 24 23 16 16 14 9 9 10 10 12 17 24 27 27 27 28 29 25 25 25 22 20 20
12 11 7 5 5 3 6 11 15 17 17 17 18 19 20 22 23 23 24 23 21 19 18 14 11 12 11 9 13 18 22 23 23 25 27 27 23 22 18 18 16 18 20
13 11 9 8 5 5 9 13 16 18 18 19 20 22 22 22 22 21 24 23 22 20 20 14 11 11 10 13 17 22 21 21 23 24 24 23 20 18 17 17 21 19 21
12 10 8 6 5 6 11 15 17 18 19 21 22 23 22 22 22 25 26 23 23 21 17 14 11 10 12 16 21 21 20 21 23 23 21 21 18 18 16 20 22 20 19
10 10 8 5 5 10 14 17 17 19 20 22 24 25 24 22 22 26 25 24 23 16 11 11 11 10 15 18 19 19 20 22 23 20 20 20 18 18 19 20 20 20 19
11 10 6 5 9 13 16 17 18 19 22 24 26 26 24 24 25 24 24 24 16 15 13 9 10 14 17 17 16 17 19 20 19 19 20 18 22 19 18 17 16 18 21
9 6 5 8 12 14 16 18 19 22 24 26 26 25 25 25 19 17 19 13 11 11 11 11 14 16 16 15 15 16 17 19 18 20 20 22 21 20 19 17 17 17 17
9 5 8 11 13 15 17 19 21 24 26 27 26 22 23 20 16 16 13 11 11 10 11 13 15 15 14 14 15 16 17 18 19 19 21 20 19 19 17 16 16 15 15
5 8 11 13 14 16 18 21 23 26 28 25 20 19 20 18 13 14 11 11 12 14 15 15 16 14 14 15 15 16 18 18 19 19 20 19 17 17 16 16 15 15 16
8 11 13 14 16 18 20 23 26 26 23 22 20 18 18 14 13 13 12 16 19 20 17 16 14 13 14 14 15 15 15 17 19 19 18 17 16 16 16 15 15 16 16
10 12 14 16 17 20 24 25 23 20 20 20 19 18 18 15 14 14 16 16 17 14 13 12 14 15 15 15 15 15 15 16 17 18 17 16 16 16 16 16 16 16 17
Wind_Direction
229 241 261 258 252 230 233 242 238 293 273 273 158 135 154 114 81 39 10 351 339 327 322 322 320 318 316 316 317 318 319 321 323 326 315 319 306 264 254 271 279 282 285
126 123 113 89 81 110 133 165 107 133 122 132 125 141 145 116 4 344 344 339 337 332 328 320 315 314 314 316 319 323 326 326 326 324 322 314 294 284 259 276 292 292 292
127 122 116 108 109 105 103 104 105 107 114 126 141 143 150 341 341 333 327 324 319 316 314 314 315 318 321 324 326 328 328 326 323 320 314 309 291 306 286 299 297 299 301
144 132 124 118 113 109 110 115 117 120 128 135 146 211 288 293 314 309 306 314 308 313 313 315 318 323 325 327 328 328 325 321 316 312 301 292 287 293 296 292 298 298 305
155 141 133 134 137 135 133 130 130 142 148 171 223 266 285 291 306 308 317 316 313 313 314 321 326 325 324 325 326 327 328 328 324 311 305 303 297 291 280 301 305 299 302
157 153 154 155 157 163 166 163 166 172 197 218 259 289 308 326 335 325 321 316 313 314 320 326 326 327 328 326 322 319 319 319 319 311 303 298 298 298 294 294 298 294 300
172 174 180 180 179 185 193 187 192 205 239 288 308 320 323 330 326 328 326 322 313 316 323 325 323 321 314 310 312 311 308 307 303 303 302 303 301 302 299 298 294 297 298
189 192 197 196 197 212 200 204 216 242 270 292 305 316 325 324 325 330 328 325 330 321 319 318 309 300 302 312 312 304 304 300 300 303 308 306 307 303 302 297 299 298 296
196 199 208 211 214 213 205 216 229 239 282 309 328 330 331 328 325 326 324 321 321 317 309 307 304 301 306 315 313 299 295 294 298 302 303 301 301 299 299 302 298 296 296
203 209 216 207 203 196 194 189 195 278 299 307 308 308 314 317 319 317 315 303 300 302 302 306 303 299 294 307 309 292 288 292 293 298 300 299 298 297 297 294 292 289 287
190 184 174 170 169 169 172 190 254 298 312 323 312 307 312 318 318 313 310 307 311 312 306 305 300 296 292 297 296 275 285 285 297 300 298 298 296 298 298 295 293 290 286
170 159 156 159 165 175 202 291 326 322 318 314 314 316 319 316 315 317 314 316 317 316 311 302 292 291 287 295 288 272 270 291 298 298 297 301 303 303 301 299 297 294 291
160 161 168 174 175 184 231 323 323 308 323 327 321 315 315 319 319 314 316 320 321 319 310 304 298 293 297 303 290 268 277 294 288 298 304 308 307 304 301 302 299 297 293
168 175 179 188 193 217 296 313 308 327 324 317 316 318 321 315 314 318 321 325 326 321 313 304 303 304 300 295 263 272 293 289 297 305 307 307 306 303 303 301 298 296 290
175 182 190 187 192 250 278 293 318 318 318 320 322 324 314 315 319 319 325 328 325 321 314 312 309 308 317 301 292 293 294 300 307 310 309 310 307 304 300 296 294 291 290
186 190 186 195 222 212 258 306 315 319 321 323 322 318 318 319 319 319 325 328 324 320 314 308 312 327 313 304 299 303 304 310 310 310 315 314 311 309 306 303 301 294 291
198 193 201 220 199 235 300 310 316 320 321 318 319 317 313 312 315 317 322 324 322 324 313 320 305 305 298 298 307 310 311 311 314 318 318 316 315 317 314 312 317 313 305
203 203 208 198 216 276 301 313 318 319 319 321 322 320 314 309 310 311 318 319 317 309 308 299 299 296 293 304 309 312 313 316 319 321 322 321 319 317 320 316 312 306 302
202 203 198 207 239 294 312 315 317 320 321 321 323 325 323 316 311 312 313 316 316 311 300 287 289 285 300 307 312 314 317 321 323 325 327 325 318 315 323 313 312 311 311
195 193 194 223 288 310 314 317 320 320 320 323 327 325 321 314 309 311 314 314 316 315 304 285 282 288 301 309 310 314 319 322 326 327 327 327 324 323 318 314 312 315 317
186 188 206 271 304 313 317 319 317 318 320 322 323 321 318 311 306 307 310 312 304 293 292 279 285 300 307 308 310 315 318 323 324 325 328 328 329 327 320 316 317 313 312
180 206 261 300 313 318 319 317 317 318 319 320 320 319 318 318 314 315 318 323 304 288 286 279 293 302 305 307 312 315 316 322 322 328 330 332 335 333 329 328 321 316 319
195 238 287 307 318 317 317 316 316 316 317 317 317 318 324 326 317 316 312 314 305 290 278 285 298 305 306 310 312 314 317 322 328 331 332 333 336 340 339 336 331 332 329
228 270 300 310 316 316 315 314 316 315 314 313 316 317 324 323 313 321 304 299 298 292 288 291 297 299 306 309 311 312 316 324 331 334 337 339 341 342 342 344 345 348 342
264 291 306 314 317 316 315 316 314 310 309 315 315 314 321 316 313 316 308 304 304 304 281 286 291 296 303 305 307 308 313 322 327 334 338 339 343 347 351 353 356 359 360
282 304 311 314 316 318 318 317 313 310 312 316 316 310 313 303 303 305 307 309 323 304 290 285 287 293 299 300 301 303 309 316 325 333 335 339 343 346 348 351 355 358 2